Regional Weather Roundup
Issued by NWS

Home | Current Version | Previous Version | Text Only | Print | Product List | Glossary Off
Versions: 1 2 3 4 5 6 7 8 9 10 11 12 13 14 15 16 17 18 19 20 21 22 23 24 25 26 27 28 29 30 31 32 33 34 35 36 37 38 39 40 41 42 43 44 45 46 47 48 49 50

000
ASUS43 KDMX 302107
RWRIA

WEATHER ROUNDUP FOR IOWA
NATIONAL WEATHER SERVICE DES MOINES IA
400 PM CDT SAT AUG 30 2014

NOTE: "FAIR" INDICATES FEW OR NO CLOUDS BELOW 12,000 FEET WITH NO
SIGNIFICANT WEATHER AND/OR OBSTRUCTIONS TO VISIBILITY.

* - THESE STATIONS ARE NOT NWS STATIONS...THUS NOT UNDER NWS
QUALITY CONTROL.  THEY ALSO DO NOT REPORT WEATHER SUCH
AS PRECIPITATION OR FOG.

IAZ001>003-012>014-020>022-031>034-043>046-302200-
   NORTHWEST IOWA

CITY           SKY/WX    TMP DP  RH WIND       PRES   REMARKS
CARROLL *      MOSUNNY   77  64  65 W9        29.90S
CHEROKEE *     MOSUNNY   73  63  68 W7        29.89F
DENISON *      SUNNY     75  63  64 W7        29.89F
LE MARS *      PTSUNNY   73  63  68 VRB5      29.90F
ORANGE CITY *  PTSUNNY   75  61  60 W3        29.90F
SHELDON *      PTSUNNY   73  64  73 VRB3      29.88F
SIOUX CITY     SUNNY     75  60  59 CALM      29.89F
SPENCER        MOSUNNY   78  63  59 W9        29.88F HX  80
STORM LAKE *   SUNNY     72  72 100 W8        29.91S
$$

IAZ055>058-069>071-079>083-090>094-302200-
   SOUTHWEST IOWA

CITY           SKY/WX    TMP DP  RH WIND       PRES   REMARKS
ATLANTIC *     MOSUNNY   77  66  69 SW3       29.90F
AUDUBON *      MOSUNNY   81  70  69 CALM      29.92S HX  84
CLARINDA *     SUNNY     82  64  54 CALM      29.91F HX  84
COUNCIL BLFS * SUNNY     79  66  65 CALM      29.90F HX  81
CRESTON *      SUNNY     79  70  73 W8        29.91F HX  81
HARLAN  *      SUNNY     77  66  69 CALM      29.94F
LAMONI         MOSUNNY   81  67  62 SW5       29.90F HX  83
RED OAK *      SUNNY     79  68  69 CALM      29.91F HX  81
SHENANDOAH *   SUNNY     82  66  57 CALM      29.90F HX  85
$$

IAZ047>049-059>061-072>074-084-302200-
   CENTRAL IOWA

CITY           SKY/WX    TMP DP  RH WIND       PRES   REMARKS
AMES           PTSUNNY   77  66  68 W7        29.88F
ANKENY *       MOSUNNY   79  68  69 NW10      29.87F HX  81
CHARITON *     MOSUNNY   81  68  65 SW8       29.89F HX  83
DES MOINES     MOSUNNY   83  67  58 W8        29.87F HX  85
GRINNELL*      MOSUNNY   81  66  61 SW8       29.89S HX  83
KNOXVILLE *    MOSUNNY   79  66  65 SW3       29.88S HX  81
MARSHALLTOWN   PTSUNNY   79  68  69 W9        29.87F HX  81
PELLA *        SUNNY     82  68  61 W6        29.89F HX  85
PERRY *          N/A     75  68  78 SW5       29.89F
$$

IAZ004>006-015-016-023>025-035-036-302200-
   NORTH CENTRAL IOWA

CITY           SKY/WX    TMP DP  RH WIND       PRES   REMARKS
ALGONA *       MOSUNNY   75  64  69 NW5       29.89F
CLARION *      PTSUNNY   77  64  65 W8        29.88F
ESTHERVILLE    MOSUNNY   74  61  63 VRB3      29.88F
FORT DODGE *   MOSUNNY   79  64  61 W7        29.89F HX  81
MASON CITY     PTSUNNY   76  66  71 NW9       29.89S
FOREST CITY *  PTSUNNY   77  64  65 NW8       29.88F
IOWA FALLS *     N/A     77  66  69 W10       29.90S
$$

IAZ007>011-017>019-026>030-037>042-050>054-066-302200-
   NORTHEAST IOWA

CITY           SKY/WX    TMP DP  RH WIND       PRES   REMARKS
CEDAR RAPIDS   SUNNY     77  67  71 W8        29.87F
CHARLES CITY * MOSUNNY   79  66  65 NW9       29.86F HX  81
CLINTON *      PTSUNNY   77  66  69 W10       29.90S
DECORAH *      MOSUNNY   77  66  69 VRB6G14   29.84F
DUBUQUE        MOSUNNY   78  67  68 SW15      29.86F HX  80
MONTICELLO *   PTSUNNY   81  68  65 W10G16    29.86S HX  83
OELWEIN *      MOSUNNY   77  66  69 W8        29.87S
WATERLOO       MOSUNNY   79  65  62 W13       29.85F HX  81
$$

IAZ064-065-067-068-078-302200-
   EAST CENTRAL IOWA

CITY           SKY/WX    TMP DP  RH WIND       PRES   REMARKS
DAVENPORT      SUNNY     79  67  66 W9        29.88F HX  81
IOWA CITY      SUNNY     79  68  69 SW9       29.88F HX  81
MT. PLEASANT * MOSUNNY   82  64  54 W5        29.88F HX  84
MUSCATINE *    PTSUNNY   81  68  65 NW6       29.87S HX  83
QUAD CITIES    MOSUNNY   83  68  60 NW10      29.86F HX  86
$$

IAZ062-063-075>077-085>089-095>099-302200-
   SOUTHEAST IOWA

CITY           SKY/WX    TMP DP  RH WIND       PRES   REMARKS
BURLINGTON     LGT RAIN  82  68  62 W5        29.88F HX  85
FAIRFIELD *    MOSUNNY   81  68  65 VRB3      29.89F HX  83
FORT MADISON * MOSUNNY   84  70  61 W6        29.89F HX  88
KEOKUK *       MOSUNNY   84  70  61 W10       29.87F HX  88
OSKALOOSA *      N/A     81  70  69 W5        29.90S HX  84
CENTERVILLE *  MOSUNNY   81  70  69 CALM      29.91F HX  84
OTTUMWA        MOSUNNY   79  67  66 VRB3      29.89F HX  81
WASHINGTON *   PTSUNNY   81  70  69 NW9       29.88F HX  84
$$

ABBREVIATIONS USED IN REMARKS
   TC - TEMPERATURES IN CELSIUS
  WCI - WIND CHILL INDEX
   HX - HEAT INDEX
  VSB - VISIBILITY
$$



USA.gov is the U.S. government's official web portal to all federal, state and local government web resources and services.